Regional Weather Roundup
Issued by NWS

Home | Current Version | Previous Version | Text Only | Print | Product List | Glossary On
Versions: 1 2 3 4 5 6 7 8 9 10 11 12 13 14 15 16 17 18 19 20 21 22 23 24 25 26 27 28 29 30 31 32 33 34 35 36 37 38 39 40 41 42 43 44 45 46 47 48 49 50
000
ASHW40 PHFO 210843
RWRHI

WEATHER ROUNDUP FOR HAWAII
NATIONAL WEATHER SERVICE HONOLULU HI
1000 PM HST SAT SEP 20 2014

THIS IS AN AUTOMATED REPORT THAT HAS NOT BEEN QUALITY CONTROLLED.

NOTE..."FAIR" INDICATES FEW OR NO CLOUDS BELOW 12,000 FEET WITH NO
SIGNIFICANT WEATHER AND/OR OBSTRUCTIONS TO VISIBILITY.

* - THESE SITES REPORT LIMITED FIELDS

HIZ001>004-210900-
KAUAI-NIIHAU-

CITY           SKY/WX    TMP DP  RH WIND       PRES   REMARKS
LIHUE APT      PTCLDY    77  71  82 W5        29.99S
PORT ALLEN*      N/A     75 N/A N/A NE5         N/A
POIPU*           N/A     75 N/A N/A N3          N/A
PRINCEVILLE*   NOT AVBL
KOKOLE POINT*    N/A     79 N/A N/A MISG        N/A
MOLOAA DAIRY*  NOT AVBL
WAIMEA HTS*      N/A     75  68  78 VRB5        N/A
PUU OPAE*        N/A     68  64  88 CALM        N/A
PUU LUA*       NOT AVBL
MAKAHA RIDGE*  NOT AVBL
$$

HIZ005>011-210900-
OAHU-

CITY           SKY/WX    TMP DP  RH WIND       PRES   REMARKS
HONOLULU       PTCLDY    82  71  69 N5        29.97R
KALAELOA       CLEAR     75  73  93 CALM      29.98R
KANEOHE MCB    MOCLDY   N/A N/A N/A E8        29.98S
WHEELER FIELD  NOT AVBL
BELLOWS*         N/A    N/A N/A N/A E13         N/A
KAHUKU*          N/A    N/A N/A N/A E2          N/A
WHEELER*       NOT AVBL
WAIANAE HARBOR NOT AVBL
DILLINGHAM*      N/A     75  70  83 CALM        N/A
KAHUKU TRN*      N/A     75  73  94 SE3         N/A
KAWAILOA*      NOT AVBL
KII*             N/A     79  73  83 SE5         N/A
MAKUA RANGE*     N/A     75  70  83 E6          N/A
OAHU FOREST NW   N/A     70  70 100 N7          N/A
SCHOFIELD BRK*   N/A     73  70  88 MISG        N/A
SCHOFIELD S*   NOT AVBL
WAIANAE VLY*     N/A     73  70  88 N3G10       N/A
KUAOKALA*        N/A     75  68  78 CALM        N/A
HONOULIUULI*   NOT AVBL
MOKUOLOE IS*     N/A    N/A N/A N/A MISG        N/A
PALEHUA*         N/A     84  73  70 CALM        N/A  HX  91
WAIAWA PHB*    NOT AVBL
$$

HIZ012>013-210900-
MOLOKAI-

CITY           SKY/WX    TMP DP  RH WIND       PRES   REMARKS
MOLOKAI AIRPT  CLEAR     74  73  97 CALM      30.00R
KALAUPAPA      NOT AVBL
MAKAPULAPAI*     N/A     77  72  83 E5          N/A
MOLOKAI 1*       N/A     68  68 100 E1          N/A
PUU ALII*        N/A     62  62  98 CALM        N/A
$$

HIZ016-210900-
KAHOOLAWE-

CITY           SKY/WX    TMP DP  RH WIND       PRES   REMARKS
KAHOOLAWE*       N/A     73 N/A N/A E12G17      N/A
HAKIOAWA*      NOT AVBL
HONOKANAIA*      N/A     82  73  75 NE12G18   29.99R
KANELOA*         N/A     77  72  83 E12G20      N/A
KEALIALALO*    NOT AVBL
LUA MAKIKA*    NOT AVBL
$$

HIZ014>015-210900-
LANAI-

CITY           SKY/WX    TMP DP  RH WIND       PRES   REMARKS
LANAI CITY     MOCLDY    73  73 100 N5        30.05S
LANAI 1*         N/A     73  73 100 E7          N/A
$$

HIZ017>028-210900-
MAUI-

CITY           SKY/WX    TMP DP  RH WIND       PRES   REMARKS
KAHULUI        CLEAR     80  73  79 S3        29.97R
KAPALUA-W MAUI NOT AVBL
HANA AIRPORT   MOCLDY    77  73  88 SE3       30.01S
HANA*            N/A     79 N/A N/A SE3         N/A
HALEAKALA SUMM   N/A     46  46 100 S5          N/A
MAALAEA BAY*   NOT AVBL
HALEAKALA*     NOT AVBL
KAUPO GAP*       N/A    N/A N/A N/A NW3         N/A
KULA 1*          N/A     57  53  86 E5          N/A
$$

HIZ023>026-210900-
BIG ISLAND OF HAWAII COAST AND LOWER SLOPES-

CITY           SKY/WX    TMP DP  RH WIND       PRES   REMARKS
KAILUA KONA    CLOUDY    82  75  79 N3        29.95R
HILO           CLOUDY    80  74  81 CALM      29.99R
HONOKAA*       NOT AVBL
KAWAIHAE MWT*    N/A     82 N/A N/A S3          N/A
KAWAIHAE*        N/A     82 N/A N/A S2          N/A
SOUTH POINT*     N/A     75 N/A N/A NE10G17     N/A
UPOLU AIRPORT*   N/A    N/A N/A N/A E10         N/A
KAMUELA*       SUNNY     68  68 100 E5        30.10S FOG
HAKALAU*         N/A     56  54  92 SW7         N/A
KALOKO-HONOKO*   N/A     81  73  78 NW3       29.95R
PALI 2*          N/A     70  68  94 N3          N/A
KEALAKOMO*       N/A     82  75  78 E5          N/A
KAUPULEHU*       N/A     75  70  83 SE3         N/A
KAPAPALA*        N/A     69  68  95 CALM        N/A
LOWER KAHUKU*  NOT AVBL
PUHE CS*       NOT AVBL
PUHO CS*         N/A     79  70  74 NE1         N/A
PTA KEAMUKU*     N/A     68  66  94 E1          N/A
WAIKOLOA*        N/A     75  70  83 SE2         N/A
$$

HIZ027>028-210900-
BIG ISLAND OF HAWAII INTERIOR AND SUMMMITS-

CITY           SKY/WX    TMP DP  RH WIND       PRES   REMARKS
BRADSHAW FIELD PTCLDY    57  57 100 SE3       30.37S FOG
MK VISITOR CEN NOT AVBL
MAUNA KEA*       N/A     36  25  64 NW5         N/A
MAUNA LOA*       N/A     45  36  70 MISG        N/A
MAUNA LOA 1*     N/A     45  37  76 MISG        N/A
PTA KIPUKA*      N/A     57  57 100 E3          N/A
PTA RANGE 17*    N/A     63  59  88 SE5         N/A
PTA WEST*        N/A     66  64  94 S2          N/A
NENE CABIN*    NOT AVBL
AHUMOA*          N/A     54  52  94 CALM        N/A
PTA PORTABLE*  NOT AVBL
PUU MALI*      NOT AVBL
$$

HIC003-210900-
NORTHWEST ISLANDS-

CITY           SKY/WX    TMP DP  RH WIND       PRES   REMARKS
MIDWAY ISLAND  PTCLDY    81  75  83 NE13      30.10R
MIDWAY NOS*    NOT AVBL
FRENCH FRIGATE NOT AVBL
$$

PHZ110>124-180-210900-
BUOY REPORTS

STATION/POSITION TIME  TEMP    WIND        PRES    WAVE   SWELL
                       AIR SEA DIR/SP/G            HT/PER HT/DIR
                 (UTC) (F)     (DEG/KT/KT) (MB)    (FT/S) (FT/D)
BUOY 51001       NOT AVBL
BUOY 51101       NOT AVBL
BUOY 51100       NOT AVBL
BUOY 51003       0800   81 83   50/ 14/ 17 1014.2R   4/ 7   3
BUOY 51004       0706   81 81  100/ 10/ 10 1014.6    4/ 9   5/ 90
BARBERS PT BUOY  NOT AVBL
WAIMEA BAY BUOY  0800      82                N/A     3/11
KAILUA BAY BUOY  0800      83                N/A     4/11   2/ 20
LANAI BUOY       NOT AVBL
BARBERS PT 2     0800      83                N/A     3/11   2/180
PAUWELA MAUI     0800      81                N/A     4/12   2/360
HILO             0800      82                N/A     4/ 7   2/110
KANEOHE BAY BUOY NOT AVBL
HANALEI KAUAI    NOT AVBL
KAHULUI HARBOR   0800   80 84  290/  8/  9 1014.8R
HONOLULU HARBOR  0800   81      80/  1/  2 1015.2R
KILO NALU        NOT AVBL
HILO HARBOR      0800   80     210/  4/  5 1015.0R
MOKUOLOE         0800      86              1015.4S
NAWILIWILI       0800      84                N/A
WHOTS BUOY       NOT AVBL
BUOY 51028       NOT AVBL
$$

......................KEY........................................
  SKY/WX - SKY CONDITIONS/PRESENT WEATHER
  TMP    - TEMPERATURE IN FAHRENHEIT
  DWPT   - DEWPOINT IN FAHRENHEIT
  RH     - RELATIVE HUMIDITY IN PERCENT
  WIND   - DIRECTION AND SPEED /MPH FOR ISLANDS...KTS FOR BUOYS/
  PRES   - MEAN SEA LEVEL PRESSURE IN INCHES OF HG
  VSB    - VISIBILITY IN MILES
  HX     - HEAT INDEX
  WCI    - WIND CHILL INDEX
  VRB    - VARIABLE WIND DIRECTION
  N/A    - NOT AVAILABLE



USA.gov is the U.S. government's official web portal to all federal, state and local government web resources and services.